This is the latest recevied weather packets stored in our database for station/object WC4PEM-6. If no packets are shown the sender has not sent any weather packets the latest 10 day(s).
| Time | Temp. | Humidity | Pressure | Rain* | Wind** | Luminosity | Snow |
|---|---|---|---|---|---|---|---|
| 1778063404 | 20.56° C | 90% | 1015.4 hPa | 0 mm | - | - | - |
| 1778063104 | 20.56° C | 90% | 1015.3 hPa | 0 mm | - | - | - |
| 1778062877 | 20° C | 90% | 1015.2 hPa | 0 mm | - | - | - |
| 1778062804 | 20° C | 90% | 1015.2 hPa | 0 mm | - | - | - |
| 1778062554 | 21.67° C | 74% | 1016.2 hPa | 0 mm | - | - | - |
| 1778062504 | 20° C | 89% | 1015.4 hPa | 0 mm | - | - | - |
| 1778062204 | 20° C | 88% | 1015.3 hPa | 0 mm | - | - | - |
| 1778061904 | 20° C | 87% | 1015.3 hPa | 0 mm | - | - | - |
| 1778061604 | 20° C | 87% | 1015.3 hPa | 0 mm | - | - | - |
| 1778061304 | 20° C | 87% | 1015.3 hPa | 0 mm | - | - | - |
| 1778061004 | 20° C | 87% | 1015.1 hPa | 0 mm | - | - | - |
| 1778060704 | 20.56° C | 87% | 1015.1 hPa | 0 mm | - | - | - |
| 1778060404 | 20.56° C | 87% | 1015 hPa | 0 mm | - | - | - |
| 1778060104 | 20.56° C | 86% | 1015 hPa | 0 mm | - | - | - |
| 1778059883 | 20.56° C | 87% | 1015.1 hPa | 0 mm | - | - | - |
| 1778059804 | 20.56° C | 86% | 1015.3 hPa | 0 mm | - | - | - |
| 1778059504 | 20.56° C | 86% | 1015.1 hPa | 0 mm | - | - | - |
| 1778059204 | 20.56° C | 87% | 1015.1 hPa | 0 mm | - | - | - |
| 1778058904 | 20.56° C | 87% | 1014.8 hPa | 0 mm | - | - | - |
| 1778058604 | 20° C | 88% | 1014.8 hPa | 0 mm | - | - | - |
| 1778058304 | 20° C | 89% | 1014.8 hPa | 0 mm | - | - | - |
| 1778058004 | 19.44° C | 88% | 1014.9 hPa | 0 mm | - | - | - |
| 1778057704 | 18.89° C | 86% | 1014.9 hPa | 0 mm | - | - | - |
| 1778057404 | 18.89° C | 85% | 1014.9 hPa | 0 mm | - | - | - |
| 1778057104 | 18.89° C | 84% | 1014.8 hPa | 0 mm | - | - | - |
* Rain latest hour (hover to see other rain measurements)
** Current wind speed in m/s (hover to see current wind gust speed)